Location: Newark
(7.0858°N, 171.3717°E)
Time: 22:34:48
(UTC+00:00)

A-11 Canister half - All Passes

Search period start: 25 November 2020 00:00
Search period end: 05 December 2020 00:00
Orbit: 1525 x 1683 km, 47.3° (Epoch: 25 November)

Date Brightness Start Highest point End Pass type
(mag) Time Alt. Az. Time Alt. Az. Time Alt. Az.
25 Nov - 02:52:21 10° NNW 03:01:08 42° NE 03:09:45 10° ESE daylight
25 Nov - 04:57:21 10° WNW 05:05:54 41° SW 05:14:26 10° SSE daylight
25 Nov - 15:46:47 10° SSW 15:56:24 50° SE 16:06:04 10° ENE visible
25 Nov - 17:52:18 10° WSW 18:01:28 39° NW 18:10:39 10° NNE visible
26 Nov - 02:30:48 10° NNW 02:39:29 39° NE 02:47:57 10° ESE daylight
26 Nov - 04:35:34 10° WNW 04:44:17 44° SW 04:52:57 10° SSE daylight
26 Nov - 15:25:14 10° SSW 15:34:44 47° SE 15:44:16 10° ENE visible
26 Nov - 17:30:26 10° WSW 17:39:45 41° NW 17:49:05 10° NNE visible
27 Nov - 02:09:16 10° NNW 02:17:48 37° NE 02:26:08 10° ESE daylight
27 Nov - 04:13:46 10° WNW 04:22:39 47° SW 04:31:27 10° SSE daylight
27 Nov - 15:03:43 10° SSW 15:13:03 43° SE 15:22:27 10° ENE visible
27 Nov - 17:08:36 10° WSW 17:18:02 44° NW 17:27:32 10° NNE visible
28 Nov - 01:47:44 10° NNW 01:56:07 34° NE 02:04:18 10° ESE daylight
28 Nov - 03:52:01 10° NW 04:01:01 51° SW 04:09:56 10° SSE daylight
28 Nov - 14:42:14 10° SSW 14:51:23 40° SE 15:00:37 10° ENE visible
28 Nov - 16:46:47 10° WSW 16:56:20 47° NW 17:05:58 10° NNE visible
29 Nov - 01:26:12 10° NNW 01:34:26 32° NE 01:42:28 10° ESE daylight
29 Nov - 03:30:16 10° NW 03:39:23 55° SW 03:48:25 10° SSE daylight
29 Nov - 14:20:44 10° SSW 14:29:42 37° SE 14:38:45 10° ENE visible
29 Nov - 16:25:00 10° WSW 16:34:38 50° NW 16:44:22 10° NNE visible
30 Nov - 01:04:42 10° NNW 01:12:45 30° NE 01:20:35 10° ESE daylight
30 Nov - 03:08:32 10° NW 03:17:46 59° SW 03:26:52 10° SSE daylight
30 Nov - 13:59:16 10° S 14:08:02 35° SE 14:16:52 10° ENE visible
30 Nov - 16:03:12 10° WSW 16:12:56 54° NW 16:22:47 10° NNE visible
30 Nov - 18:18:02 10° NW 18:19:31 10° NW 18:21:00 10° NNW daylight
01 Dec - 00:43:11 10° NNW 00:51:03 28° NE 00:58:42 10° E daylight
01 Dec - 02:46:48 10° NW 02:56:08 64° SW 03:05:19 10° SSE daylight
01 Dec - 13:37:50 10° S 13:46:21 32° SE 13:54:58 10° ENE visible
01 Dec - 15:41:27 10° SW 15:51:14 57° NW 16:01:11 10° NNE visible
01 Dec - 17:54:46 10° NW 17:57:41 11° NW 18:00:36 10° NNW visible
02 Dec - 00:21:42 10° N 00:29:21 26° NE 00:36:47 10° E daylight
02 Dec - 02:25:05 10° NW 02:34:30 68° SW 02:43:45 10° SSE daylight
02 Dec - 04:38:54 10° SW 04:39:25 10° SW 04:39:55 10° SW daylight
02 Dec - 13:16:24 10° S 13:24:41 30° SE 13:33:02 10° ENE night (unlit)
02 Dec - 15:19:41 10° SW 15:29:33 61° NW 15:39:33 10° NNE visible
02 Dec - 17:32:04 10° WNW 17:35:52 12° NW 17:39:42 10° NNW visible
03 Dec - 00:00:14 10° N 00:07:38 24° NE 00:14:50 10° E daylight
03 Dec - 02:03:22 10° NW 02:12:53 73° SW 02:22:10 10° SSE daylight
03 Dec - 04:15:02 10° WSW 04:17:44 11° SW 04:20:25 10° SSW daylight
03 Dec - 12:55:01 10° S 13:03:00 28° SE 13:11:06 10° ENE night (unlit)
03 Dec - 14:57:57 10° SW 15:07:51 65° NW 15:17:55 10° NNE visible
03 Dec - 17:09:33 10° WNW 17:14:04 14° NW 17:18:36 10° N visible
03 Dec - 23:38:46 10° N 23:45:54 23° NE 23:52:52 10° E daylight
04 Dec - 01:41:40 10° NW 01:51:14 78° SW 02:00:35 10° SE daylight
04 Dec - 03:52:19 10° WSW 03:56:03 13° SW 03:59:47 10° SSW daylight
04 Dec - 12:33:39 10° S 12:41:20 25° SE 12:49:06 10° ENE night (unlit)
04 Dec - 14:36:15 10° SW 14:46:10 70° NW 14:56:17 10° NNE visible
04 Dec - 16:47:10 10° WNW 16:52:16 15° NW 16:57:24 10° N visible
04 Dec - 23:17:20 10° N 23:24:11 21° NE 23:30:51 10° E daylight
